Date,TemperatureHighF,TemperatureAvgF,TemperatureLowF,DewpointHighF,DewpointAvgF,DewpointLowF,HumidityHigh,HumidityAvg,HumidityLow,PressureMaxIn,PressureMinIn,WindSpeedMaxMPH,WindSpeedAvgMPH,GustSpeedMaxMPH,PrecipitationSumIn
2013-1-1,32.9,23.8,19.0,21.3,16.5,11.7,90,74,50,30.32,30.16,17,6,0,0.01
2013-1-2,26.7,22.9,20.8,17.3,6.9,-1.1,86,51,34,30.45,30.29,22,9,0,0.00
2013-1-3,42.7,26.3,15.2,15.3,2.9,-7.8,51,38,12,30.44,30.27,5,1,0,0.00
2013-1-4,47.2,32.7,24.6,11.3,7.7,0.7,52,36,16,30.27,30.11,12,3,0,0.00
2013-1-5,35.0,28.4,19.1,17.9,12.7,-0.3,71,52,38,30.29,30.15,12,4,0,0.00
2013-1-6,49.5,35.2,21.7,18.8,9.4,-10.6,59,36,8,30.21,29.90,6,1,0,0.00
2013-1-7,40.9,30.4,23.3,19.3,15.0,11.4,64,53,33,29.97,29.73,6,1,0,0.00
2013-1-8,40.9,34.9,22.4,19.4,13.9,10.4,68,43,29,30.07,29.75,14,4,0,0.00
2013-1-9,57.0,43.2,22.8,28.5,17.6,11.0,66,37,18,30.07,29.69,11,2,0,0.00
2013-1-10,50.6,35.0,15.7,21.5,16.4,10.4,91,50,28,29.69,29.42,10,2,0,0.00
2013-1-11,15.0,4.0,-0.7,11.8,-0.0,-4.8,87,83,80,30.27,29.54,26,11,0,0.00
2013-1-12,7.2,3.8,-0.7,2.9,-0.4,-4.6,85,82,80,30.43,30.27,13,3,0,0.00
2013-1-13,8.7,6.5,5.4,1.5,0.9,0.1,81,78,70,30.43,30.40,11,6,0,0.00
2013-1-15,39.3,34.3,25.9,29.7,26.2,21.3,86,73,48,30.27,30.13,19,7,0,0.01
2013-1-16,44.0,37.6,26.4,21.6,16.0,11.0,76,43,26,30.32,30.09,16,5,0,0.00
2013-1-17,48.2,34.5,24.5,22.9,15.3,4.0,69,48,16,30.39,30.09,10,2,0,0.00
2013-1-18,53.4,49.1,43.2,12.6,5.4,2.1,26,17,12,30.09,29.82,19,7,0,0.00
2013-1-19,44.4,36.8,24.3,19.5,10.3,-0.3,72,37,16,30.12,29.88,15,4,0,0.00
2013-1-20,43.1,21.9,14.6,16.6,12.7,1.3,91,74,17,30.42,30.07,21,5,0,0.00
2013-1-21,40.3,25.5,13.8,19.1,14.2,8.8,91,65,33,30.38,30.13,8,1,0,0.00
2013-1-22,44.0,33.5,26.1,15.2,7.9,-0.2,49,35,16,30.17,30.09,8,2,0,0.00
2013-1-23,49.8,34.0,28.4,19.8,12.6,0.8,61,42,13,30.19,29.98,7,1,0,0.00
2013-1-24,54.1,43.5,25.6,23.2,16.0,-1.3,77,37,11,30.04,29.84,12,3,0,0.00
2013-1-25,46.4,34.1,24.9,21.5,18.0,13.9,78,53,31,30.12,29.96,5,1,0,0.00
2013-1-26,49.6,39.9,32.1,24.7,22.3,18.7,63,50,34,29.96,29.66,8,2,0,0.00
2013-1-27,39.0,31.0,25.0,28.4,24.6,21.1,91,78,52,29.82,29.61,22,3,0,0.01
2013-1-28,25.3,20.8,12.9,22.8,16.8,9.5,90,84,64,29.91,29.81,10,2,0,0.00
2013-1-29,21.1,11.9,-3.2,15.6,6.3,-7.0,87,78,58,30.26,29.86,21,5,0,0.00
2013-1-30,26.7,18.8,-1.0,24.6,15.7,-4.4,93,88,72,30.20,30.04,16,5,0,0.01
2013-1-31,27.3,18.5,2.3,25.8,16.3,-1.2,94,91,85,30.32,30.12,14,4,0,0.00